Dewpoint
73 75 75 77 74 74 74 75 75 75 75 74 75 77 75 75 76 76 76 75 73 73 73 70 68 70 70 66 68 66 71 71 70 67 69 74 75 75 76 76 75 75 75 74 74 75 75 75 75 75 74 73 72 72 72 73 72 72 72 72 72 72 71 72 73 73 73 73 72 72 71 71 71 72 72 72 72 72 72 71 71 71 71 71 71
74 76 74 75 76 73 76 75 76 76 75 75 78 76 75 75 76 76 74 74 72 73 74 67 64 68 69 69 69 69 72 71 71 71 71 71 75 75 76 76 76 76 75 74 74 74 74 75 75 75 75 74 74 73 72 72 73 73 73 72 72 72 72 72 72 72 73 73 73 73 72 72 72 72 72 72 72 72 72 72 72 72 72 72 71
74 76 78 76 76 77 75 77 75 73 77 76 77 75 76 75 76 76 74 74 73 73 73 69 67 70 65 68 68 70 69 69 63 64 67 70 75 75 75 76 76 76 75 75 74 74 74 74 74 75 75 74 73 73 73 71 73 73 73 73 72 72 72 72 72 72 73 73 73 73 73 73 72 72 73 73 72 72 72 72 72 72 72 73 72
78 76 75 77 76 76 77 76 75 77 77 75 75 76 76 75 75 75 74 75 74 72 71 69 68 65 69 69 67 68 69 70 62 61 66 66 73 75 75 75 76 76 76 75 75 75 74 74 74 73 74 73 73 73 73 72 73 73 73 73 73 73 72 72 72 72 73 73 73 73 73 73 73 73 73 73 73 73 73 73 73 73 73 73 73
79 77 75 75 75 76 75 76 77 76 76 74 73 76 77 75 74 74 74 74 73 71 70 70 67 67 70 66 69 70 71 69 65 66 60 67 66 73 75 75 75 76 75 76 76 75 75 74 74 74 74 74 73 73 73 73 73 72 73 74 73 73 72 72 73 72 72 72 72 73 73 73 73 73 73 73 73 73 73 73 73 73 73 73 73
79 77 77 77 75 76 76 76 77 76 76 78 75 76 76 75 74 74 73 73 69 71 72 71 71 69 71 71 68 72 72 65 67 64 65 65 68 72 70 75 76 75 75 76 76 76 75 75 74 74 74 74 74 74 73 73 73 72 73 73 74 74 73 72 72 72 71 71 72 73 73 73 74 73 73 73 73 73 73 73 73 73 73 73 73
78 79 76 76 74 74 76 76 76 76 76 76 76 75 75 74 75 73 73 71 72 70 71 71 68 70 74 73 68 70 71 64 66 68 70 68 68 66 68 69 73 74 75 75 76 76 76 76 75 74 74 74 74 74 74 73 73 73 73 73 73 73 73 71 72 72 72 72 72 73 72 73 73 73 73 73 73 73 74 74 74 74 73 73 73
79 79 78 76 75 75 76 77 77 77 76 76 76 75 75 73 74 72 73 70 70 70 70 72 70 70 71 70 73 69 67 68 67 67 63 70 64 71 67 70 71 71 73 73 75 75 76 76 75 74 74 74 74 73 74 73 73 73 73 73 73 73 73 72 72 72 73 72 72 73 73 73 73 73 73 73 74 74 74 74 74 74 74 74 74
78 78 79 77 76 75 75 75 77 76 76 76 75 75 73 71 74 74 72 76 71 67 68 71 69 69 70 69 65 70 69 70 70 64 68 68 70 65 69 69 71 73 72 71 73 76 76 75 73 74 74 74 73 73 74 74 73 73 73 73 73 73 73 73 72 72 72 73 73 73 73 73 73 73 73 73 73 74 74 74 74 74 74 74 74
79 79 79 77 76 76 74 77 76 76 76 74 75 73 73 73 73 74 73 72 71 68 67 65 66 66 68 64 68 67 67 70 67 75 71 68 69 69 69 68 67 68 69 71 71 74 74 75 73 73 73 73 73 73 73 74 74 74 73 73 73 73 73 73 73 72 72 73 73 73 73 74 74 74 74 73 73 73 74 74 74 74 74 74 74
78 78 78 77 76 77 76 76 76 77 76 74 74 73 72 72 72 75 73 72 72 69 69 70 67 66 67 65 69 73 71 70 74 75 71 65 59 66 62 68 66 69 69 71 72 73 72 74 74 75 74 73 73 73 73 73 73 73 74 73 73 73 73 73 73 73 72 72 73 73 73 74 74 74 74 73 73 74 74 74 74 74 74 74 74
77 77 77 77 77 77 75 75 75 75 75 73 73 73 73 70 71 68 70 71 71 70 70 71 70 68 68 69 71 71 71 71 68 65 69 66 66 65 59 63 68 67 64 69 70 72 73 74 74 74 74 73 74 73 74 73 73 73 73 73 73 73 73 73 73 73 73 73 73 73 73 73 73 73 73 73 73 74 74 74 74 74 74 74 74
77 77 77 77 77 76 77 76 75 75 74 73 73 71 73 74 76 74 70 71 68 74 70 68 70 68 76 70 70 68 67 68 66 63 61 69 61 66 64 60 61 64 69 68 68 67 72 73 73 74 73 73 73 73 72 73 72 72 71 71 72 72 73 73 73 73 73 73 73 73 73 73 73 73 73 73 73 73 74 74 74 73 73 74 74
78 78 78 77 76 76 76 75 75 74 74 73 70 69 70 68 73 75 71 69 71 66 67 66 68 67 67 70 69 70 69 68 62 62 57 57 56 61 61 57 57 60 61 68 67 65 66 69 72 72 73 73 72 73 73 72 72 72 71 71 71 72 72 72 72 72 72 73 73 73 73 73 73 73 73 73 73 73 73 73 73 74 74 73 74
77 77 76 76 75 75 75 75 74 73 74 72 73 72 74 71 71 70 70 71 67 71 70 70 67 66 68 65 65 64 70 68 65 62 48 50 58 53 56 55 58 63 64 64 62 65 64 67 70 71 72 72 72 72 72 71 71 71 70 70 70 71 71 71 71 72 72 72 72 72 73 73 73 73 73 73 73 73 73 73 73 73 73 74 73
75 75 75 75 75 75 74 74 75 72 76 74 72 74 73 72 71 70 73 66 63 69 69 69 70 68 65 66 65 62 65 64 66 66 56 51 50 51 57 59 58 66 67 60 59 66 64 68 68 69 70 70 70 71 71 71 70 70 69 67 67 67 69 70 70 71 71 71 71 71 72 72 72 73 72 72 73 73 73 73 73 73 73 73 73
75 75 75 75 74 75 74 73 74 73 72 73 73 69 70 69 70 73 69 67 65 67 68 68 69 70 68 66 64 64 62 62 60 68 60 59 50 50 60 58 58 67 70 67 71 70 64 65 70 69 70 70 70 69 70 71 70 68 67 65 65 66 66 68 68 68 68 68 69 70 70 71 71 71 72 72 72 72 73 73 73 73 73 73 73
75 75 74 74 74 74 74 72 73 73 74 72 73 75 70 69 68 68 69 72 70 66 67 68 68 68 69 73 65 65 65 64 63 65 68 63 58 59 59 54 58 65 73 65 67 71 65 64 70 68 67 67 68 65 67 66 68 68 68 67 63 64 66 66 66 65 66 66 66 66 67 68 69 70 71 71 71 72 72 72 72 72 72 73 73
72 74 73 74 74 74 74 73 72 73 73 72 71 68 65 69 68 70 71 70 71 68 66 68 68 71 66 67 67 66 64 64 62 64 63 67 65 55 58 53 54 58 60 60 59 61 62 67 62 64 66 65 67 70 66 64 64 66 65 63 62 62 63 65 65 64 64 65 64 65 65 65 65 66 67 68 69 71 71 72 72 72 72 72 72
73 74 74 74 74 74 74 73 72 70 71 71 71 69 72 70 70 70 72 72 73 71 68 68 70 69 68 70 64 61 64 64 61 62 63 62 65 60 51 50 55 51 53 49 54 59 66 71 70 69 70 63 72 64 67 63 65 65 65 63 63 61 62 62 64 64 62 62 63 63 64 64 64 65 65 66 66 67 68 69 70 71 72 72 72
74 73 74 73 74 74 74 74 72 73 71 69 67 65 69 70 71 71 71 71 74 73 72 71 66 66 67 69 67 69 67 61 64 68 68 60 57 56 63 61 53 57 61 59 60 62 64 64 68 66 66 71 65 65 67 66 65 65 64 64 62 62 61 62 63 62 62 62 62 62 63 63 63 64 64 64 65 65 66 67 67 68 70 71 72
74 74 74 73 73 73 73 71 71 68 67 68 67 70 69 70 70 69 70 71 74 72 70 72 71 68 70 66 71 68 67 65 64 63 63 66 62 59 56 57 64 63 65 63 60 64 63 65 68 67 63 71 68 65 65 66 65 64 62 63 64 63 63 63 63 62 62 62 62 62 62 62 63 63 64 64 64 64 65 65 65 66 67 68 69
72 74 73 73 73 73 71 70 70 71 69 71 68 68 66 69 67 70 70 70 69 71 68 70 73 71 70 72 70 65 68 68 66 63 64 63 63 58 55 56 57 61 70 64 70 67 70 66 64 62 67 69 69 66 66 67 62 64 64 65 65 64 65 64 64 64 63 64 63 63 62 62 62 63 63 64 64 64 64 64 65 65 65 65 66
74 73 72 69 73 73 72 71 72 71 70 71 73 69 66 66 71 71 70 70 70 72 70 70 67 70 67 64 64 63 66 69 67 67 67 67 64 63 61 63 63 63 65 66 67 67 65 68 67 68 69 64 67 71 68 67 67 69 67 67 67 66 66 66 65 65 65 64 64 64 64 64 63 63 63 63 63 63 63 64 64 64 64 65 65
74 72 71 71 73 73 73 74 72 71 70 71 71 71 71 71 70 68 70 69 70 69 70 69 66 68 67 65 64 65 66 71 69 64 65 67 68 66 64 60 61 61 66 62 65 63 65 66 67 68 70 69 70 75 71 69 66 69 67 69 67 68 68 68 68 67 66 66 65 65 65 64 65 64 64 63 63 63 63 63 63 63 64 64 64
72 73 70 70 72 72 73 72 72 72 72 71 70 72 71 76 69 69 67 70 70 69 69 67 69 66 69 66 61 64 63 63 65 68 65 65 66 64 64 64 62 60 63 68 72 64 65 65 64 67 68 70 70 71 70 68 66 72 69 66 67 67 67 67 67 67 67 67 66 66 65 65 65 64 64 64 64 63 63 63 63 63 63 63 63
73 73 73 73 72 71 71 71 72 71 71 70 70 71 72 73 76 68 70 68 69 70 68 67 66 66 65 68 67 66 67 74 67 66 69 66 65 65 65 62 61 60 60 66 69 63 58 64 61 62 68 68 69 69 69 68 66 72 70 66 66 67 66 66 66 66 66 66 66 66 67 66 65 65 64 64 64 64 63 63 63 63 63 63 63
74 73 73 73 72 71 71 70 71 70 70 71 70 69 70 69 71 70 69 67 68 68 70 69 64 69 66 68 71 64 66 65 65 66 70 66 66 67 68 65 62 60 62 60 62 63 60 64 70 68 65 68 67 69 69 66 67 69 70 65 66 66 66 66 66 66 66 66 66 66 66 66 66 66 65 65 65 65 64 64 63 64 64 64 63
73 72 71 73 72 71 70 68 71 70 70 70 69 70 69 68 68 70 69 66 69 68 69 68 68 61 64 64 66 66 73 72 69 69 71 72 71 71 69 67 67 62 61 60 61 60 62 55 56 71 66 67 67 67 67 66 67 66 65 65 64 65 65 64 65 65 65 65 65 65 66 66 66 65 66 65 65 65 64 64 64 64 63 63 64
71 70 71 70 72 71 71 70 69 69 69 68 69 69 68 68 68 69 68 69 72 69 67 68 68 67 67 69 68 71 70 68 67 65 72 67 68 68 68 69 68 64 63 61 60 63 62 64 56 62 71 71 70 69 67 68 67 66 66 66 65 64 64 64 65 66 65 65 65 65 65 65 65 65 65 65 65 65 65 65 64 64 64 64 64
73 73 72 70 71 70 71 70 70 69 69 68 69 68 69 68 68 68 68 69 69 70 69 68 67 68 68 68 70 68 69 67 68 68 68 70 68 68 67 68 67 66 65 64 61 64 64 64 65 61 61 63 63 63 66 66 67 64 64 64 65 65 65 65 64 65 65 65 64 64 64 63 64 64 63 64 64 64 65 65 65 65 64 64 63
72 73 71 70 70 69 69 67 67 67 68 67 68 68 69 69 67 66 66 68 68 67 68 66 66 67 66 66 67 66 69 69 69 68 70 69 68 67 66 67 68 68 67 65 63 62 66 63 64 64 63 63 65 64 65 66 66 67 66 66 65 66 65 64 65 64 64 64 64 63 63 62 62 63 63 63 64 64 65 65 63 63 63 64 63
72 72 71 70 70 69 68 68 66 67 68 68 68 68 68 68 69 68 67 67 66 67 67 67 65 66 67 66 67 68 68 68 67 66 68 69 68 67 66 66 66 66 65 64 62 61 63 65 65 64 64 65 63 66 65 65 66 67 66 65 66 65 64 65 65 65 64 64 63 63 62 62 62 62 63 63 63 64 65 65 63 62 62 62 62
72 71 71 70 70 70 68 68 68 68 68 69 67 68 68 68 68 67 67 68 67 66 65 65 66 65 66 67 67 67 68 67 66 66 66 65 63 63 69 66 66 66 67 64 64 62 60 62 64 66 65 64 62 65 64 64 64 67 66 66 65 64 64 64 63 64 64 63 63 62 62 62 62 62 62 63 63 63 63 63 63 62 62 61 61
72 71 71 70 71 70 68 68 68 68 69 68 68 68 67 68 67 66 66 67 67 65 65 65 65 66 65 66 65 65 66 66 66 65 65 66 67 68 67 66 66 67 67 67 64 62 61 61 63 62 63 64 63 64 65 66 66 65 64 65 64 64 64 63 63 62 62 62 62 62 61 61 62 62 62 62 62 62 62 61 61 60 60 60 60
72 72 72 70 71 70 68 68 68 68 69 68 68 68 68 68 67 67 66 66 66 66 65 65 65 65 65 65 64 64 66 66 67 66 66 66 67 67 67 66 67 66 67 67 66 64 64 62 63 63 64 64 64 64 65 65 64 64 64 64 65 64 63 63 62 61 61 61 61 61 61 61 60 60 60 61 61 60 60 59 59 59 58 58 58
72 72 72 71 71 70 67 67 68 68 68 68 68 67 68 67 67 67 67 67 67 66 66 66 66 65 64 64 65 65 66 66 67 66 66 65 65 65 65 66 67 67 66 65 65 65 64 63 63 64 65 64 65 65 66 64 63 63 63 64 64 64 64 63 62 61 62 61 61 60 60 60 60 60 60 60 60 59 59 58 58 58 57 57 57
72 71 71 69 69 69 68 68 68 68 69 69 69 67 66 67 67 67 67 68 67 67 66 66 66 66 65 65 65 66 65 65 64 65 66 65 66 66 65 65 66 66 66 67 67 67 65 64 63 62 64 63 63 63 64 63 62 61 61 62 63 64 64 64 62 60 60 60 60 62 62 61 60 59 59 59 59 59 58 58 57 57 56 56 55
71 70 70 70 69 69 68 68 68 68 69 69 69 68 68 68 67 67 66 67 66 66 66 65 64 64 64 65 66 66 65 65 65 65 66 66 65 64 65 65 67 68 67 65 65 64 64 63 63 63 62 63 63 61 63 63 62 61 59 60 60 63 64 63 63 62 60 60 61 61 61 60 60 59 58 58 59 58 58 58 57 56 56 55 54
70 70 70 69 69 68 68 68 68 69 69 68 69 69 69 68 67 67 67 66 65 65 65 64 63 62 63 63 62 64 64 65 65 66 66 65 65 64 66 69 69 66 65 65 64 64 63 62 62 61 62 62 62 63 63 62 61 62 62 61 58 58 60 62 61 61 62 62 61 60 60 60 59 60 59 58 58 58 58 58 59 59 58 56 55
70 69 69 69 69 69 68 68 69 68 67 68 68 68 68 68 67 66 66 66 65 65 64 64 63 63 63 62 62 61 64 68 67 66 66 65 64 65 67 67 67 66 65 63 63 63 63 63 62 62 61 61 61 60 60 60 60 59 61 60 59 60 60 60 62 63 62 60 60 59 60 60 60 61 60 60 60 61 61 61 60 60 59 56 56
72 71 71 70 68 68 68 69 69 68 67 68 66 63 65 66 66 65 66 66 66 65 65 64 63 63 63 61 61 64 68 67 67 67 66 67 66 66 69 67 67 65 64 63 63 63 62 61 60 60 59 58 58 59 58 58 59 59 59 61 59 60 60 60 61 61 63 61 59 58 59 61 59 59 60 60 60 60 58 57 56 55 58 58 57
72 72 72 70 68 68 69 68 66 66 68 67 61 61 62 63 65 66 66 66 66 66 65 65 64 64 63 64 64 65 69 70 69 69 68 67 67 67 65 65 66 65 64 63 62 62 61 60 60 59 58 58 59 60 59 58 59 60 60 60 60 60 59 57 56 58 63 61 61 59 59 61 61 59 58 57 56 56 56 56 57 57 56 56 55
73 72 71 70 69 69 69 66 63 65 68 64 59 59 61 61 64 66 66 66 66 66 65 64 65 64 64 63 63 66 66 66 67 68 68 67 67 66 65 64 64 64 64 64 63 62 61 59 58 58 59 59 59 60 59 59 61 60 60 60 59 59 58 57 56 55 59 61 60 58 56 57 57 57 57 57 57 57 56 56 56 56 55 54 55
74 73 72 70 70 70 69 68 65 67 68 60 59 59 60 60 61 65 65 66 65 65 65 65 65 65 66 65 65 68 66 69 68 68 69 69 67 65 64 64 64 63 61 61 61 63 61 60 59 59 59 60 60 61 62 62 62 59 59 58 58 58 57 56 56 56 58 59 57 55 54 55 56 55 54 56 56 56 56 56 56 56 55 55 55
73 72 71 71 71 70 69 69 68 67 65 59 58 57 58 58 60 62 67 66 65 64 65 65 64 64 66 69 68 67 68 67 68 68 68 68 68 68 68 67 66 66 63 60 59 59 60 60 59 59 61 61 60 62 63 62 60 59 58 56 56 55 56 56 57 57 57 58 55 54 53 54 54 54 53 54 55 56 57 57 56 55 55 55 54
72 71 70 70 70 70 68 68 68 65 63 57 56 56 56 57 58 60 66 66 66 66 65 64 63 63 69 68 69 69 68 68 68 68 67 67 67 67 68 67 66 65 64 63 63 62 62 61 60 60 61 62 62 62 62 63 61 59 58 56 56 56 56 57 57 56 55 56 56 56 53 53 55 53 52 52 53 53 54 53 53 53 53 52 52
72 71 71 69 69 69 68 67 65 64 61 56 55 56 55 56 58 64 65 65 65 65 65 66 65 68 68 69 68 69 69 68 68 65 67 67 67 67 67 66 65 65 64 64 61 61 63 63 63 62 62 61 58 60 60 56 57 58 57 56 57 57 56 55 53 53 52 53 55 53 51 50 54 51 49 49 50 50 52 52 52 52 52 52 52
71 71 71 69 70 67 67 67 65 64 61 57 55 54 55 55 57 63 63 64 64 64 64 65 66 67 69 69 69 69 68 68 66 61 64 68 66 66 66 65 65 63 62 62 60 58 57 56 55 55 54 54 54 53 52 53 55 56 57 56 55 53 54 54 53 52 51 51 50 51 49 47 50 50 50 50 51 49 49 48 49 50 51 51 51
67 68 69 70 69 68 66 65 63 63 60 59 53 53 53 54 58 62 63 64 63 63 64 64 65 67 69 70 69 68 68 68 62 60 61 65 65 65 64 64 62 61 61 60 58 63 57 56 55 55 55 55 55 54 53 53 52 54 56 55 53 52 53 53 52 52 51 52 52 50 49 49 50 50 47 46 46 45 43 44 47 50 53 53 53
69 70 69 69 68 68 65 64 64 62 62 62 53 53 53 53 58 63 64 64 63 63 64 64 66 69 67 68 68 68 67 66 60 59 59 63 65 64 64 63 62 61 61 62 62 61 62 60 62 62 62 59 59 59 60 57 55 55 56 56 56 55 54 53 53 53 52 52 51 55 48 48 45 45 44 42 41 43 46 48 51 53 55 56 56